Regional Weather Roundup
Issued by NWS

Home | Current Version | Previous Version | Graphics & Text | Print | Product List | Glossary On
Versions: 1 2 3 4 5 6 7 8 9 10 11 12 13 14 15 16 17 18 19 20 21 22 23 24 25 26 27 28 29 30 31 32 33 34 35 36 37 38 39 40 41 42 43 44 45 46 47 48 49 50
999
ASUS45 KBOU 180010
RWRCO

WEATHER ROUNDUP FOR COLORADO
NATIONAL WEATHER SERVICE DENVER/BOULDER CO
500 PM MST FRI NOV 17 2017

NOTE: "FAIR" INDICATES FEW OR NO CLOUDS BELOW 12000 FEET WITH NO
SIGNIFICANT WEATHER AND/OR OBSTRUCTIONS TO VISIBILITY.

COZ001>005-013-030-031-180100-
...NORTHWEST COLORADO...

CITY           SKY/WX    TMP DP  RH WIND       PRES   REMARKS
CRAIG          LGT SNOW  33  31  92 NW10      29.84R VSB 1   WCI  25
HAYDEN         HVY SNOW  32  31  96 NW12      29.84R VSB 1/4 WCI  23
MEEKER         LGT SNOW  33  32  96 MISG      29.83R VSB 3/4
RABBIT EARS PA HVY SNOW  23  21  93 MISG      29.78R VSB 1/4
STEAMBOAT SPGS CLOUDY    32  32 100 SW7       29.80R WCI  25
WALDEN         CLOUDY    30  27  86 W12       29.80R WCI  21
$$

COZ006>008-011-180100-
...WEST CENTRAL VALLEYS...

CITY           SKY/WX    TMP DP  RH WIND       PRES   REMARKS
GRAND JUNCTION CLOUDY    54  38  54 W22G35    29.71R
MONTROSE       LGT RAIN  51  39  63 S8        29.75F
EAGLE          RAIN      42  36  79 W32G40    29.73R
RIFLE          CLOUDY    46  36  68 NW25G38   29.75R
DELTA          MOCLDY    64  27  25 SW20G28   29.68S
NUCLA          CLOUDY    59  30  33 SW30G45   29.80S
$$

COZ017>023-064>068-180100-
...SOUTHWEST COLORADO...

CITY           SKY/WX    TMP DP  RH WIND       PRES   REMARKS
DURANGO        MOCLDY    51  36  56 SW17G28   29.89F
CORTEZ         MOCLDY    57  36  45 SW28G36   29.87S
PAGOSA SPRINGS LGT RAIN  46  36  67 SW8G18    29.91F
TELLURIDE      RAIN      42  32  65 SW9G21    29.93F
WOLF CREEK PAS HVY SNOW  28  28 100 SW28G44   29.94F VSB<1/4 WCI  13
$$

COZ009-010-012-014-032>034-037-058>063-180100-
...CENTRAL COLORADO...

CITY           SKY/WX    TMP DP  RH WIND       PRES   REMARKS
ASPEN          LGT RAIN  42  34  73 NW15G23   29.73R
BUENA VISTA    CLOUDY    42  33  71 E8        29.72F
COPPER MTN     LGT SNOW  32  27  80 MISG      29.82R
BERTHOUD PASS  HVY SNOW  23  12  63 MISG      29.79F VSB<1/4
COTTONWOOD PAS CLOUDY    41  32  70 CALM      29.78F
GUNNISON       LGT RAIN  42  35  76 W24G36    29.78S
KREMMLING      LGT SNOW  41  30  65 NW20G30   29.76R
LEADVILLE      LGT SNOW  31  29  92 NE5       29.76F VSB 1   WCI  26
MONARCH PASS   CLOUDY    28  27  93 W49G66    29.90F WCI   9
SALIDA         CLOUDY    46  36  66 CALM      29.82F
SUNLIGHT       HVY SNOW  28  28 100 MISG      29.80F VSB 1/4
WILKERSON PASS CLOUDY    32  27  80 SW14G28   29.84F WCI  22
$$

COZ069>075-180100-
...SAN LUIS VALLEY/SANGRE DE CRISTO MOUNTAINS...

CITY           SKY/WX    TMP DP  RH WIND       PRES   REMARKS
ALAMOSA        FAIR      41  35  79 SW10      29.84F
DEL NORTE      FAIR      46  31  56 SW22G36   29.82F
LA VETA PASS   CLOUDY    34  32  93 SW24G43     N/A  WCI  21
SAGUACHE       MOCLDY    46  28  49 W9        29.78F
$$

COZ035-036-038>040-180100-
...NORTHERN COLORADO FRONT RANGE...

CITY           SKY/WX    TMP DP  RH WIND       PRES   REMARKS
DENVER INTL AP MOCLDY    48  36  63 N22G29    29.68R
DMNS CITY PARK   N/A     50  35  57 NE12G28   29.66R
AURORA         MOCLDY    48  37  66 NE18G25   29.68R
FRONT RANGE AP LGT RAIN  48  37  66 N22G31    29.68R
ERIE MUNI ARPT LGT RAIN  45  36  71 NE23G35   29.70R
BOULDER MUN AP LGT RAIN  45  34  65 NE15      29.67R
CENTENNIAL     FAIR      53  33  46 NE16      29.67R
BROOMFIELD     NOT AVBL
FORT COLLINS   LGT RAIN  42  36  79 N18       29.68R
LONGMONT       DRIZZLE   47  36  64 NE14G20   29.70R
$$

COZ041-046-047-076>085-087-088-180100-
...PIKES PEAK/PALMER DIVIDE AND SOUTHERN FOOTHILLS...

CITY           SKY/WX    TMP DP  RH WIND       PRES   REMARKS
COLO. SPRINGS  FAIR      57  27  31 W20G30    29.67R
A. F. ACADEMY  FAIR      55  24  30 SW20G30   29.67R
SCHRIEVER AFB  FAIR      58  23  26 W29G35    29.67R
CHEYENNE MTN   FAIR      53  24  32 E6        29.65R
ELLICOTT       NOT AVBL
FALCON         FAIR      54  21  27 W14G22    29.69S
FORT CARSON    FAIR      59  25  27 W21       29.64R
LIMON          FAIR      58  27  30 W9        29.60R
MONUMENT HILL  FAIR      43  28  56 W6        29.69S
CANON CITY     FAIR      59  32  36 NW12      29.63R
WALSENBURG     FAIR      57  36  44 SW25G37   29.73R
TRINIDAD       FAIR      59  33  37 W25G39    29.72F
$$

COZ042>045-048>051-090-091-180100-
...NORTHEAST COLORADO...

CITY           SKY/WX    TMP DP  RH WIND       PRES   REMARKS
GREELEY ARPT   LGT RAIN  42  37  82 N20       29.70R
AKRON          FAIR      46  32  58 N18       29.63R
BURLINGTON     FAIR      52  32  46 N12       29.58R
WRAY           NOT AVBL
YUMA           FAIR      43  30  61 NE7       29.60R
STERLING       FAIR      46  37  71 N12       29.63R
HOLYOKE        FAIR      45  30  57 NE8       29.62R
FORT MORGAN    FAIR      45  36  71 N14       29.66R
$$

COZ086-089-092>099-180100-
...SOUTHEAST COLORADO...

CITY           SKY/WX    TMP DP  RH WIND       PRES   REMARKS
PUEBLO         FAIR      64  32  30 SW18G30   29.60S
LA JUNTA       FAIR      67  33  28 W29G38    29.59R
LAMAR          FAIR      70  32  24 W23G31    29.54R
SPRINGFIELD      N/A     65  32  29 W12G21    29.64R
$$




USA.gov is the U.S. government's official web portal to all federal, state and local government web resources and services.